Birmingham-Shuttlesworth International Airport
KBHM : now visible

Aeroporto :











RITROVATECI SU...

 
LOGIN :

Iscrizione | Disclaimer

   EN    FR    IT 

 









Sommario :    VFR   VFR Marginale   IFR   IFR Intensivo   IFR Molto Intensivo
Visibilità : 
Base nubi : 
>= 8 km
>= 3000ft
5 / 8 km
1000 / 3000 ft
1500m / 5 km
500 / 1000 ft
800 / 1500m
200 / 500 ft
< 800m
< 200 ft
Simboli :   Temporali  Nebbia  Neve Forte  Precipitazioni Forti  Vento > 20 kt







- Altitudine del aeroporto : 650 ft
- Codice IATA : BHM


KBHM - Birmingham-Shuttlesworth International

ULTIMO METAR :
  • 160353Z 15005KT 10SM FEW250 26/18 A3006 RMK AO2 SLP170 T02560178

METARs OBSOLETI :
  • 160253Z VRB04KT 10SM FEW250 26/17 A3005 RMK AO2 SLP168 T02560172 53004
  • 160153Z 16003KT 10SM SCT250 27/18 A3005 RMK AO2 SLP166 T02670178

TAF KBHM
Valido dal 16 a 00 ore il 17 a 00 ore UTC


152340Z 1600/1624 19007KT P6SM FEW060 SCT250
FM160100 18003KT P6SM SCT250
FM161300 17003KT P6SM SCT006 BKN015
FM161600 20005KT P6SM BKN030
FM161800 21006KT P6SM BKN050
PROB30 1618/1624 6SM -TSRA BKN040CB
FIR KZTL / America del Nord



MetMap, La meteo Aeronautica in un colpo d'occhio ! - Copyright ORBIFLY Dicembre 2007 - Disclaimer

ORBIFLY MET'MAP TEAM :

Programmazione e sviluppo : Alexandra Zaïnal
Concezione e sviluppo : Baudouin d'Aumeries
Co-Programmazione e sviluppo : Marc-Olivier Méhu
Supporto tecnico e logistico : Manuel Goepfert
Aiuto per la traduzione : Arnaldo La Scala

Contatto : metmap@orbifly.com




FONTI E CREDITI :

   NOAA       Earth
Advisory